TimeCST,TemperatureF,Dew PointF,Humidity,Sea Level PressureIn,VisibilityMPH,Wind Direction,Wind SpeedMPH,Gust SpeedMPH,PrecipitationIn,Events,Conditions,WindDirDegrees,DateUTC
12:15 AM,19.4,19.4,100,30.06,8.0,East,9.2,-,N/A,,Overcast,80,2013-02-07 06:15:00
12:35 AM,19.4,19.4,100,30.07,6.0,East,9.2,-,N/A,,Overcast,80,2013-02-07 06:35:00
12:55 AM,19.4,19.4,100,30.07,5.0,East,8.1,-,N/A,Snow,Light Snow,90,2013-02-07 06:55:00
1:15 AM,19.4,19.4,100,30.07,5.0,East,9.2,-,N/A,,Overcast,80,2013-02-07 07:15:00
1:35 AM,19.4,19.4,100,30.08,5.0,East,6.9,-,N/A,Snow,Light Snow,90,2013-02-07 07:35:00
1:55 AM,19.4,19.4,100,30.08,5.0,East,6.9,-,N/A,,Overcast,80,2013-02-07 07:55:00
2:15 AM,17.6,17.6,100,30.08,6.0,East,8.1,-,N/A,,Overcast,90,2013-02-07 08:15:00
2:35 AM,17.6,17.6,100,30.08,6.0,East,9.2,-,N/A,,Overcast,90,2013-02-07 08:35:00
2:55 AM,17.6,17.6,100,30.09,7.0,ESE,8.1,-,N/A,,Overcast,110,2013-02-07 08:55:00
3:15 AM,17.6,17.6,100,30.09,7.0,East,9.2,-,N/A,,Overcast,80,2013-02-07 09:15:00
3:35 AM,17.6,17.6,100,30.09,7.0,East,6.9,-,N/A,,Overcast,100,2013-02-07 09:35:00
3:55 AM,17.6,17.6,100,30.09,8.0,East,8.1,-,N/A,,Overcast,90,2013-02-07 09:55:00
4:15 AM,17.6,17.6,100,30.09,8.0,East,8.1,-,N/A,,Overcast,90,2013-02-07 10:15:00
4:35 AM,17.6,17.6,100,30.10,7.0,East,8.1,-,N/A,,Overcast,90,2013-02-07 10:35:00
4:55 AM,17.6,17.6,100,30.10,7.0,East,9.2,-,N/A,,Overcast,90,2013-02-07 10:55:00
5:15 AM,17.6,17.6,100,30.10,6.0,East,9.2,-,N/A,,Overcast,90,2013-02-07 11:15:00
5:35 AM,17.6,17.6,100,30.11,5.0,East,6.9,-,N/A,,Overcast,100,2013-02-07 11:35:00
6:15 AM,17.6,17.6,100,30.11,3.0,East,8.1,-,N/A,,Overcast,100,2013-02-07 12:15:00
6:35 AM,17.6,17.6,100,30.11,2.5,East,8.1,-,N/A,,Overcast,100,2013-02-07 12:35:00
6:55 AM,17.6,17.6,100,30.11,2.5,East,8.1,-,N/A,Snow,Light Snow,100,2013-02-07 12:55:00
7:15 AM,17.6,17.6,100,30.11,2.5,East,8.1,-,N/A,,Overcast,100,2013-02-07 13:15:00
7:35 AM,17.6,17.6,100,30.11,2.5,East,9.2,-,N/A,Snow,Light Snow,100,2013-02-07 13:35:00
7:55 AM,17.6,17.6,100,30.11,2.0,East,9.2,-,N/A,,Overcast,90,2013-02-07 13:55:00
8:15 AM,15.8,15.8,100,30.12,1.5,East,8.1,-,N/A,,Overcast,90,2013-02-07 14:15:00
8:35 AM,15.8,15.8,100,30.12,1.5,East,10.4,-,N/A,,Overcast,100,2013-02-07 14:35:00
8:55 AM,17.6,17.6,100,30.14,2.5,East,9.2,-,N/A,,Overcast,90,2013-02-07 14:55:00
9:15 AM,15.8,15.8,100,30.14,3.0,East,10.4,-,N/A,,Overcast,100,2013-02-07 15:15:00
9:35 AM,15.8,15.8,100,30.14,3.0,East,9.2,-,N/A,,Overcast,100,2013-02-07 15:35:00
9:55 AM,17.6,17.6,100,30.15,4.0,East,9.2,-,N/A,,Overcast,100,2013-02-07 15:55:00
10:15 AM,17.6,17.6,100,30.15,4.0,ESE,9.2,-,N/A,,Overcast,110,2013-02-07 16:15:00
10:35 AM,17.6,17.6,100,30.15,5.0,ESE,10.4,-,N/A,,Overcast,110,2013-02-07 16:35:00
10:55 AM,17.6,17.6,100,30.16,5.0,East,9.2,-,N/A,,Overcast,90,2013-02-07 16:55:00
11:15 AM,17.6,17.6,100,30.17,4.0,East,8.1,-,N/A,,Overcast,90,2013-02-07 17:15:00
11:35 AM,17.6,17.6,100,30.17,3.0,East,9.2,-,N/A,,Overcast,100,2013-02-07 17:35:00
11:55 AM,19.4,19.4,100,30.17,3.0,ESE,10.4,-,N/A,,Overcast,110,2013-02-07 17:55:00
12:15 PM,19.4,19.4,100,30.17,2.5,East,11.5,-,N/A,,Overcast,100,2013-02-07 18:15:00
12:35 PM,19.4,19.4,100,30.16,2.0,East,10.4,-,N/A,,Overcast,90,2013-02-07 18:35:00
12:55 PM,19.4,19.4,100,30.16,1.8,ESE,10.4,-,N/A,,Overcast,110,2013-02-07 18:55:00
1:15 PM,19.4,19.4,100,30.16,1.2,ESE,10.4,-,N/A,,Overcast,120,2013-02-07 19:15:00
1:35 PM,21.2,21.2,100,30.15,1.2,ESE,10.4,-,N/A,,Overcast,110,2013-02-07 19:35:00
1:55 PM,21.2,21.2,100,30.15,1.5,ESE,9.2,-,N/A,,Overcast,120,2013-02-07 19:55:00
2:15 PM,23.0,23.0,100,30.14,2.0,ESE,9.2,-,N/A,,Overcast,120,2013-02-07 20:15:00
2:35 PM,23.0,23.0,100,30.14,2.0,ESE,10.4,-,N/A,,Overcast,110,2013-02-07 20:35:00
2:55 PM,23.0,23.0,100,30.13,2.5,ESE,10.4,-,N/A,,Overcast,120,2013-02-07 20:55:00
3:15 PM,23.0,23.0,100,30.13,3.0,ESE,10.4,-,N/A,,Overcast,110,2013-02-07 21:15:00
3:35 PM,23.0,23.0,100,30.13,3.0,ESE,8.1,-,N/A,,Overcast,120,2013-02-07 21:35:00
3:55 PM,23.0,23.0,100,30.13,3.0,ESE,9.2,-,N/A,,Overcast,110,2013-02-07 21:55:00
4:15 PM,23.0,23.0,100,30.13,3.0,SE,9.2,-,N/A,,Overcast,130,2013-02-07 22:15:00
4:35 PM,24.8,24.8,100,30.13,3.0,SE,10.4,-,N/A,,Overcast,130,2013-02-07 22:35:00
4:55 PM,24.8,24.8,100,30.13,4.0,ESE,9.2,-,N/A,,Overcast,110,2013-02-07 22:55:00
5:15 PM,24.8,24.8,100,30.13,3.0,SE,10.4,-,N/A,,Overcast,130,2013-02-07 23:15:00
5:35 PM,24.8,24.8,100,30.13,3.0,ESE,8.1,-,N/A,,Overcast,120,2013-02-07 23:35:00
5:55 PM,24.8,24.8,100,30.13,4.0,SE,10.4,-,N/A,,Overcast,130,2013-02-07 23:55:00
6:15 PM,24.8,24.8,100,30.13,3.0,ESE,8.1,-,N/A,,Overcast,120,2013-02-08 00:15:00
6:35 PM,24.8,24.8,100,30.13,5.0,SE,9.2,-,N/A,,Overcast,130,2013-02-08 00:35:00
6:55 PM,24.8,24.8,100,30.13,5.0,SE,13.8,-,N/A,,Overcast,140,2013-02-08 00:55:00
7:15 PM,24.8,24.8,100,30.13,5.0,SE,12.7,-,N/A,,Overcast,140,2013-02-08 01:15:00
7:35 PM,24.8,24.8,100,30.14,5.0,SE,9.2,-,N/A,,Overcast,140,2013-02-08 01:35:00
7:55 PM,24.8,24.8,100,30.13,6.0,SSE,9.2,-,N/A,,Overcast,150,2013-02-08 01:55:00
8:15 PM,24.8,24.8,100,30.14,5.0,SSE,10.4,-,N/A,,Overcast,150,2013-02-08 02:15:00
8:35 PM,24.8,24.8,100,30.14,5.0,SSE,10.4,-,N/A,,Overcast,150,2013-02-08 02:35:00
8:55 PM,24.8,24.8,100,30.14,5.0,SSE,11.5,-,N/A,,Overcast,150,2013-02-08 02:55:00
9:15 PM,24.8,24.8,100,30.14,5.0,SSE,11.5,-,N/A,,Overcast,150,2013-02-08 03:15:00
9:35 PM,24.8,24.8,100,30.13,5.0,SSE,9.2,-,N/A,,Overcast,150,2013-02-08 03:35:00
9:55 PM,24.8,24.8,100,30.14,6.0,SSE,10.4,-,N/A,,Overcast,160,2013-02-08 03:55:00
10:15 PM,24.8,24.8,100,30.14,6.0,SSE,11.5,-,N/A,,Overcast,150,2013-02-08 04:15:00
10:35 PM,24.8,24.8,100,30.13,5.0,SSE,12.7,-,N/A,,Overcast,150,2013-02-08 04:35:00
10:55 PM,24.8,24.8,100,30.13,6.0,SE,12.7,-,N/A,,Overcast,140,2013-02-08 04:55:00
11:15 PM,24.8,24.8,100,30.12,7.0,SE,12.7,-,N/A,,Overcast,140,2013-02-08 05:15:00
11:35 PM,24.8,24.8,100,30.12,7.0,SSE,15.0,-,N/A,,Overcast,150,2013-02-08 05:35:00
11:55 PM,24.8,24.8,100,30.12,7.0,SSE,15.0,-,N/A,,Overcast,160,2013-02-08 05:55:00